When you browse on this site, cookies collect data to enhance your experience and personalize the content and advertising you see.
Visit our Privacy Policy to learn more. By continuing to use the site, you agree to this use of cookies and data.

Hourly Weather Jutiapa

Today, 14 July, Tuesday

Time Temperature Precipitation Wind Pressure Humidity
00:00 +20°C° 0 mm 1 mps 673 mmHg 95%
01:00 +20°C° 0 mm 1 mps 673 mmHg 95%
02:00 +19°C° 0 mm 2 mps 672 mmHg 96%
03:00 +18°C° 0 mm 2 mps 671 mmHg 96%
04:00 +18°C° 0 mm 2 mps 672 mmHg 96%
05:00 +18°C° 0 mm 2 mps 672 mmHg 96%
06:00 +19°C° 0 mm 2 mps 672 mmHg 98%
07:00 +20°C° 0 mm 2 mps 673 mmHg 92%
08:00 +23°C° 0 mm 2 mps 673 mmHg 86%
09:00 +25°C° 0 mm 2 mps 674 mmHg 80%
10:00 +26°C° 0 mm 2 mps 674 mmHg 75%
11:00 +27°C° 0 mm 2 mps 674 mmHg 70%
12:00 +28°C° 0 mm 2 mps 674 mmHg 64%
13:00 +28°C° 1 mm 2 mps 674 mmHg 70%
14:00 +28°C° 1 mm 2 mps 673 mmHg 75%
15:00 +27°C° 1 mm 1 mps 672 mmHg 81%
16:00 +25°C° 4.1 mm 1 mps 672 mmHg 86%
17:00 +24°C° 4.1 mm 1 mps 672 mmHg 92%
18:00 +22°C° 4.1 mm 1 mps 672 mmHg 97%
19:00 +22°C° 3.4 mm 1 mps 672 mmHg 97%
20:00 +21°C° 3.4 mm 1 mps 673 mmHg 96%
21:00 +21°C° 3.4 mm 1 mps 673 mmHg 95%
22:00 +21°C° 0.1 mm 1 mps 673 mmHg 95%
23:00 +19°C° 0.1 mm 2 mps 673 mmHg 95%

Tomorrow, 15 July, Wednesday

Time Temperature Precipitation Wind Pressure Humidity
00:00 +19°C° 0.1 mm 2 mps 673 mmHg 95%
01:00 +19°C° 0 mm 2 mps 672 mmHg 95%
02:00 +18°C° 0 mm 2 mps 672 mmHg 95%
03:00 +18°C° 0 mm 2 mps 671 mmHg 94%
04:00 +18°C° 0 mm 2 mps 671 mmHg 94%
05:00 +18°C° 0 mm 2 mps 671 mmHg 94%
06:00 +18°C° 0 mm 2 mps 671 mmHg 94%
07:00 +20°C° 0 mm 2 mps 672 mmHg 89%
08:00 +23°C° 0 mm 2 mps 673 mmHg 84%
09:00 +25°C° 0 mm 2 mps 673 mmHg 79%
10:00 +26°C° 0 mm 2 mps 673 mmHg 74%
11:00 +27°C° 0 mm 2 mps 673 mmHg 69%
12:00 +28°C° 0 mm 3 mps 673 mmHg 64%
13:00 +28°C° 0.4 mm 2 mps 673 mmHg 68%
14:00 +27°C° 0.4 mm 2 mps 673 mmHg 71%
15:00 +27°C° 0.4 mm 2 mps 672 mmHg 75%
16:00 +26°C° 1.2 mm 2 mps 672 mmHg 81%
17:00 +24°C° 1.2 mm 1 mps 672 mmHg 86%
18:00 +23°C° 1.2 mm 1 mps 672 mmHg 92%
19:00 +22°C° 0.3 mm 1 mps 672 mmHg 92%
20:00 +20°C° 0.3 mm 2 mps 672 mmHg 92%
21:00 +19°C° 0.3 mm 2 mps 673 mmHg 92%
22:00 +19°C° 0 mm 2 mps 673 mmHg 92%
23:00 +18°C° 0 mm 2 mps 673 mmHg 93%

Day after tomorrow, 16 July, Thursday

Time Temperature Precipitation Wind Pressure Humidity
00:00 +18°C° 0 mm 2 mps 673 mmHg 93%
01:00 +18°C° 0 mm 2 mps 672 mmHg 92%
02:00 +18°C° 0 mm 2 mps 672 mmHg 92%
03:00 +17°C° 0 mm 2 mps 671 mmHg 91%
04:00 +17°C° 0 mm 2 mps 672 mmHg 90%
05:00 +17°C° 0 mm 2 mps 672 mmHg 90%
06:00 +17°C° 0 mm 2 mps 672 mmHg 90%
07:00 +19°C° 0 mm 2 mps 673 mmHg 84%
08:00 +23°C° 0 mm 2 mps 673 mmHg 78%
09:00 +25°C° 0 mm 2 mps 674 mmHg 72%
10:00 +26°C° 0 mm 2 mps 674 mmHg 67%
11:00 +27°C° 0 mm 2 mps 674 mmHg 62%
12:00 +28°C° 0 mm 3 mps 674 mmHg 56%
13:00 +28°C° 0.1 mm 2 mps 674 mmHg 59%
14:00 +28°C° 0.1 mm 2 mps 674 mmHg 61%
15:00 +28°C° 0.1 mm 2 mps 673 mmHg 64%
16:00 +26°C° 0.2 mm 2 mps 673 mmHg 72%
17:00 +25°C° 0.2 mm 2 mps 673 mmHg 79%
18:00 +23°C° 0.2 mm 1 mps 672 mmHg 87%
19:00 +22°C° 0 mm 1 mps 672 mmHg 86%
20:00 +20°C° 0 mm 2 mps 673 mmHg 86%
21:00 +20°C° 0 mm 2 mps 673 mmHg 85%
22:00 +19°C° 0 mm 2 mps 673 mmHg 87%
23:00 +19°C° 0 mm 2 mps 673 mmHg 88%

17 July, Friday

Time Temperature Precipitation Wind Pressure Humidity
00:00 +18°C° 0 mm 2 mps 672 mmHg 90%
01:00 +18°C° 0 mm 2 mps 672 mmHg 90%
02:00 +18°C° 0 mm 2 mps 672 mmHg 90%
03:00 +18°C° 0 mm 2 mps 671 mmHg 89%
04:00 +18°C° 0 mm 2 mps 671 mmHg 89%
05:00 +18°C° 0 mm 2 mps 671 mmHg 89%
06:00 +18°C° 0 mm 2 mps 671 mmHg 88%
07:00 +20°C° 0 mm 2 mps 672 mmHg 82%
08:00 +23°C° 0 mm 2 mps 673 mmHg 77%
09:00 +25°C° 0 mm 3 mps 674 mmHg 71%
10:00 +26°C° 0 mm 3 mps 674 mmHg 67%
11:00 +27°C° 0 mm 3 mps 674 mmHg 63%
12:00 +28°C° 0 mm 4 mps 674 mmHg 59%
13:00 +28°C° 0 mm 4 mps 673 mmHg 59%
14:00 +28°C° 0 mm 4 mps 673 mmHg 60%
15:00 +28°C° 0 mm 4 mps 673 mmHg 60%
16:00 +27°C° 0.1 mm 3 mps 672 mmHg 68%
17:00 +25°C° 0.1 mm 2 mps 672 mmHg 76%
18:00 +24°C° 0.1 mm 2 mps 672 mmHg 84%
19:00 +21°C° 0 mm 2 mps 672 mmHg 86%
20:00 +20°C° 0 mm 2 mps 672 mmHg 88%
21:00 +19°C° 0 mm 2 mps 672 mmHg 90%
22:00 +19°C° 0 mm 2 mps 672 mmHg 91%
23:00 +18°C° 0 mm 2 mps 672 mmHg 92%

18 July, Saturday

Time Temperature Precipitation Wind Pressure Humidity
00:00 +18°C° 0 mm 2 mps 671 mmHg 93%
01:00 +18°C° 0 mm 2 mps 671 mmHg 92%
02:00 +18°C° 0 mm 2 mps 671 mmHg 92%
03:00 +17°C° 0 mm 2 mps 671 mmHg 91%
04:00 +17°C° 0 mm 2 mps 671 mmHg 91%
05:00 +17°C° 0 mm 2 mps 671 mmHg 91%
06:00 +17°C° 0 mm 2 mps 671 mmHg 91%
07:00 +19°C° 0 mm 2 mps 672 mmHg 85%
08:00 +21°C° 0 mm 2 mps 672 mmHg 78%
09:00 +25°C° 0 mm 2 mps 673 mmHg 72%
10:00 +26°C° 0 mm 2 mps 673 mmHg 68%
11:00 +27°C° 0 mm 2 mps 673 mmHg 64%
12:00 +28°C° 0 mm 3 mps 673 mmHg 60%
13:00 +28°C° 0.1 mm 2 mps 673 mmHg 62%
14:00 +28°C° 0.1 mm 2 mps 672 mmHg 65%
15:00 +28°C° 0.1 mm 2 mps 672 mmHg 67%
16:00 +26°C° 0.6 mm 2 mps 672 mmHg 75%
17:00 +25°C° 0.6 mm 1 mps 672 mmHg 83%
18:00 +23°C° 0.6 mm 1 mps 671 mmHg 92%
19:00 +22°C° 0.3 mm 1 mps 672 mmHg 93%
20:00 +21°C° 0.3 mm 1 mps 672 mmHg 94%
21:00 +20°C° 0.3 mm 1 mps 672 mmHg 95%
22:00 +20°C° 0 mm 1 mps 672 mmHg 95%
23:00 +19°C° 0 mm 2 mps 672 mmHg 95%

19 July, Sunday

Time Temperature Precipitation Wind Pressure Humidity
00:00 +18°C° 0 mm 2 mps 672 mmHg 95%
01:00 +18°C° 0 mm 2 mps 671 mmHg 95%
02:00 +18°C° 0 mm 2 mps 671 mmHg 95%
03:00 +19°C° 0 mm 1 mps 671 mmHg 95%
04:00 +18°C° 0 mm 1 mps 671 mmHg 95%
05:00 +18°C° 0 mm 1 mps 671 mmHg 94%
06:00 +18°C° 0 mm 1 mps 671 mmHg 94%
07:00 +20°C° 0 mm 1 mps 672 mmHg 87%
08:00 +23°C° 0 mm 1 mps 673 mmHg 79%
09:00 +25°C° 0 mm 1 mps 673 mmHg 72%
10:00 +26°C° 0 mm 1 mps 673 mmHg 67%
11:00 +27°C° 0 mm 2 mps 673 mmHg 63%
12:00 +28°C° 0 mm 2 mps 673 mmHg 59%
13:00 +28°C° 0.1 mm 2 mps 673 mmHg 61%
14:00 +28°C° 0.1 mm 2 mps 672 mmHg 63%
15:00 +28°C° 0.1 mm 1 mps 672 mmHg 65%
16:00 +26°C° 0.4 mm 1 mps 672 mmHg 74%
17:00 +25°C° 0.4 mm 1 mps 671 mmHg 83%
18:00 +24°C° 0.4 mm 1 mps 671 mmHg 92%
19:00 +23°C° 0.4 mm 1 mps 672 mmHg 93%
20:00 +21°C° 0.4 mm 1 mps 672 mmHg 94%
21:00 +20°C° 0.4 mm 1 mps 672 mmHg 95%
22:00 +20°C° 0.1 mm 1 mps 672 mmHg 95%
23:00 +20°C° 0.1 mm 1 mps 672 mmHg 95%
Show more